Weather History for Ft Lauderdale, FL

Change the Weather History Date:

Friday, May 31, 2013

  Actual Average Record
Temperature  
Mean Temperature 83 °F 82 °F  
Max Temperature 89 °F 88 °F 96 °F (1924)
Min Temperature 76 °F 77 °F 58 °F (1971)
Degree Days  
Heating Degree Days 0 0  
Month to date heating degree days 0 0  
Since 1 July heating degree days 85 112  
Cooling Degree Days 18 17  
Month to date cooling degree days 426 471  
Year to date cooling degree days 1396 1418  
Growing Degree Days 32 (Base 50)    
Moisture  
Dew Point 74 °F    
Average Humidity 79    
Maximum Humidity 94    
Minimum Humidity 63    
Precipitation  
Precipitation 0.00 in 0.22 in 3.31 in (1998)
Month to date precipitation 14.45 4.65  
Year to date precipitation 23.58 17.49  
Snow  
Snow 0.00 in - - ()
Month to date snowfall 0.0  
Since 1 July snowfall 0.0  
Snow Depth 0.00 in    
Sea Level Pressure  
Sea Level Pressure 30.03 in    
Wind  
Wind Speed 16 mph (ESE)    
Max Wind Speed 21 mph    
Max Gust Speed 24 mph    
Visibility 10 miles    
Events Rain    
T = Trace of Precipitation, MM = Missing Value Source: NWS Daily Summary

Daily Weather History Graph

Daily Weather History Graph

Search for Another Location

Airport:

Trip Planner

Search our weather history database for the weather conditions in past years. The results will help you decide how hot, cold, wet, or windy it might be!

Date:

Astronomy

May. 31, 2013 Rise Set
Actual Time 6:28 AM EDT 8:08 PM EDT
Civil Twilight 6:02 AM EDT 8:33 PM EDT
Nautical Twilight 5:32 AM EDT 9:04 PM EDT
Astronomical Twilight 4:59 AM EDT 9:37 PM EDT
Moon 1:08 AM EDT (5/31) 1:12 PM EDT (5/31)
Length of Visible Light 14h 30m
Length of Day
13h 39m
Waning Gibbous, 51% of the Moon is Illuminated
May 31
Waning Gibbous
May 31
Last Quarter
Jun 8
New
Jun 16
First Quarter
Jun 23
Full

Hourly Weather History & Observations

Time (EDT) Temp. Heat Index Dew Point Humidity Pressure Visibility Wind Dir Wind Speed Gust Speed Precip Events Conditions
12:53 AM 78.3 °F - 75.4 °F 91% 30.04 in 10.0 mi ESE 20.7 mph - 0.03 in   Mostly Cloudy
1:53 AM 78.3 °F - 75.0 °F 90% 30.02 in 10.0 mi ESE 20.7 mph 24.2 mph N/A   Mostly Cloudy
2:53 AM 77.2 °F - 74.3 °F 91% 30.01 in 10.0 mi ESE 17.3 mph - N/A   Mostly Cloudy
3:53 AM 76.1 °F - 73.8 °F 92% 30.00 in 10.0 mi ESE 15.0 mph - N/A   Scattered Clouds
4:53 AM 76.5 °F - 74.1 °F 92% 30.01 in 10.0 mi ESE 11.5 mph - N/A   Partly Cloudy
5:53 AM 76.5 °F - 74.1 °F 92% 30.02 in 10.0 mi ESE 13.8 mph - N/A   Scattered Clouds
6:53 AM 77.7 °F - 74.1 °F 89% 30.02 in 10.0 mi ESE 17.3 mph - N/A   Partly Cloudy
7:53 AM 78.8 °F - 73.0 °F 82% 30.05 in 10.0 mi ESE 13.8 mph - N/A   Scattered Clouds
8:53 AM 81.7 °F 86.9 °F 73.2 °F 75% 30.04 in 10.0 mi SE 16.1 mph - N/A   Partly Cloudy
9:53 AM 82.9 °F 87.5 °F 70.9 °F 67% 30.04 in 10.0 mi East 17.3 mph - N/A   Mostly Cloudy
10:53 AM 86.7 °F 93.7 °F 72.9 °F 63% 30.05 in 10.0 mi East 17.3 mph - N/A   Mostly Cloudy
11:27 AM 86.0 °F 93.4 °F 73.4 °F 66% 30.05 in 10.0 mi East 17.3 mph - N/A   Partly Cloudy
11:53 AM 86.7 °F 93.7 °F 72.9 °F 63% 30.05 in 10.0 mi East 17.3 mph - N/A   Partly Cloudy
12:53 PM 85.8 °F 92.2 °F 72.5 °F 64% 30.05 in 10.0 mi East 17.3 mph - N/A   Scattered Clouds
1:20 PM 87.8 °F 95.6 °F 73.4 °F 62% 30.05 in 10.0 mi East 17.3 mph - N/A   Mostly Cloudy
1:41 PM 87.8 °F 95.6 °F 73.4 °F 62% 30.04 in 10.0 mi East 17.3 mph - N/A   Scattered Clouds
1:53 PM 86.9 °F 94.5 °F 73.6 °F 64% 30.04 in 10.0 mi East 17.3 mph - N/A   Scattered Clouds
2:53 PM 84.2 °F 92.3 °F 75.2 °F 74% 30.02 in 10.0 mi East 17.3 mph - N/A   Mostly Cloudy
3:53 PM 88.9 °F 98.6 °F 74.8 °F 63% 30.00 in 10.0 mi East 18.4 mph - N/A   Mostly Cloudy
4:27 PM 89.6 °F 99.8 °F 75.2 °F 62% 30.00 in 10.0 mi East 18.4 mph - N/A   Mostly Cloudy
4:53 PM 87.8 °F 95.6 °F 73.4 °F 62% 30.00 in 10.0 mi East 17.3 mph - N/A   Scattered Clouds
5:39 PM 87.8 °F 95.6 °F 73.4 °F 62% 29.99 in 10.0 mi East 17.3 mph - N/A   Mostly Cloudy
5:53 PM 82.6 °F 87.8 °F 72.1 °F 71% 30.00 in 10.0 mi East 15.0 mph 21.9 mph 0.00 in Rain Light Rain
6:53 PM 81.0 °F 85.1 °F 71.4 °F 73% 30.01 in 10.0 mi East 16.1 mph - 0.00 in   Mostly Cloudy
7:53 PM 78.8 °F - 74.7 °F 87% 30.02 in 10.0 mi ESE 17.3 mph - N/A   Mostly Cloudy
8:53 PM 78.8 °F - 73.9 °F 85% 30.02 in 10.0 mi ESE 9.2 mph - N/A   Scattered Clouds
9:53 PM 79.5 °F - 74.8 °F 86% 30.02 in 10.0 mi East 9.2 mph - N/A   Scattered Clouds
10:53 PM 78.6 °F - 75.2 °F 89% 30.04 in 10.0 mi ESE 10.4 mph - N/A   Scattered Clouds
11:53 PM 75.9 °F - 73.4 °F 92% 30.03 in 10.0 mi ESE 17.3 mph - N/A   Scattered Clouds